Weather History for Chicago Executive, IL

Change the Weather History Date:

Thursday, March 14, 2013

  Actual Average Record
Temperature  
Mean Temperature 30 °F 37 °F  
Max Temperature 37 °F 45 °F 82 °F (2012)
Min Temperature 22 °F 28 °F 19 °F (1997)
Degree Days  
Heating Degree Days 35 28  
Month to date heating degree days 481 423  
Since 1 July heating degree days 4988 5161  
Cooling Degree Days 0 0  
Month to date cooling degree days 0 0  
Year to date cooling degree days 0 0  
Moisture  
Dew Point 20 °F    
Average Humidity 69    
Maximum Humidity 88    
Minimum Humidity 46    
Precipitation  
Precipitation 0.00 in 0.07 in 0.12 in (2004)
Month to date precipitation 0.64 0.88  
Year to date precipitation 5.60 3.46  
Sea Level Pressure  
Sea Level Pressure 30.26 in    
Wind  
Wind Speed 5 mph (SW)    
Max Wind Speed 12 mph    
Max Gust Speed 16 mph    
Visibility 9 miles    
Events      
T = Trace of Precipitation, MM = Missing Value Source: NWS Daily Summary

Daily Weather History Graph

Daily Weather History Graph

Search for Another Location

Airport:

Trip Planner

Search our weather history database for the weather conditions in past years. The results will help you decide how hot, cold, wet, or windy it might be!

Date:

Astronomy

Mar. 14, 2013 Rise Set
Actual Time 7:04 AM CDT 6:57 PM CDT
Civil Twilight 6:36 AM CDT 7:25 PM CDT
Nautical Twilight 6:04 AM CDT 7:57 PM CDT
Astronomical Twilight 5:31 AM CDT 8:30 PM CDT
Moon 8:14 AM CDT (3/14) 10:17 PM CDT (3/14)
Length of Visible Light 12h 48m
Length of Day
11h 52m
Waxing Crescent, 9% of the Moon is Illuminated
Mar 14
Waxing Crescent
Mar 19
First Quarter
Mar 27
Full
Apr 2
Last Quarter
Apr 10
New

Hourly Weather History & Observations

Time (CDT) Temp. Windchill Dew Point Humidity Pressure Visibility Wind Dir Wind Speed Gust Speed Precip Events Conditions
12:52 AM 25.0 °F - 14.0 °F 63% 30.35 in 10.0 mi Calm Calm - N/A   Clear
1:52 AM 24.1 °F 19.7 °F 15.1 °F 69% 30.35 in 10.0 mi West 3.5 mph - N/A   Clear
2:52 AM 24.1 °F 19.7 °F 15.1 °F 69% 30.35 in 10.0 mi WSW 3.5 mph - N/A   Clear
3:52 AM 23.0 °F - 15.1 °F 72% 30.34 in 10.0 mi Calm Calm - N/A   Clear
4:52 AM 21.9 °F - 15.1 °F 75% 30.32 in 10.0 mi Calm Calm - N/A   Clear
5:52 AM 21.9 °F - 15.1 °F 75% 30.32 in 10.0 mi Calm Calm - N/A   Clear
6:52 AM 21.9 °F 15.7 °F 15.1 °F 75% 30.34 in 10.0 mi West 4.6 mph - N/A   Clear
7:52 AM 23.0 °F - 16.0 °F 74% 30.34 in 10.0 mi Calm Calm - N/A   Clear
8:52 AM 26.1 °F - 17.1 °F 69% 30.34 in 10.0 mi Calm Calm - N/A   Scattered Clouds
9:52 AM 28.9 °F - 16.0 °F 58% 30.32 in 10.0 mi Calm Calm - N/A   Scattered Clouds
10:52 AM 32.0 °F 26.4 °F 16.0 °F 52% 30.31 in 10.0 mi Variable 5.8 mph - N/A   Mostly Cloudy
11:52 AM 33.1 °F 28.7 °F 14.0 °F 46% 30.30 in 10.0 mi Variable 4.6 mph - N/A   Overcast
12:52 PM 35.1 °F 28.6 °F 17.1 °F 48% 30.29 in 10.0 mi WNW 8.1 mph - N/A   Overcast
1:52 PM 35.1 °F 28.6 °F 16.0 °F 46% 30.27 in 10.0 mi WSW 8.1 mph - N/A   Overcast
2:52 PM 33.1 °F 28.7 °F 21.9 °F 64% 30.24 in 10.0 mi WSW 4.6 mph - N/A   Overcast
3:52 PM 35.1 °F 28.6 °F 24.1 °F 64% 30.21 in 10.0 mi SW 8.1 mph - N/A   Mostly Cloudy
4:52 PM 36.0 °F 28.5 °F 27.0 °F 70% 30.19 in 10.0 mi South 10.4 mph - N/A   Clear
5:52 PM 36.0 °F 31.1 °F 27.0 °F 70% 30.23 in 10.0 mi SSW 5.8 mph - N/A   Overcast
6:52 PM 35.1 °F 29.3 °F 27.0 °F 72% 30.20 in 9.0 mi SSW 6.9 mph - N/A   Overcast
7:52 PM 33.1 °F 27.7 °F 27.0 °F 78% 30.20 in 8.0 mi WSW 5.8 mph - N/A   Mostly Cloudy
8:52 PM 33.1 °F 25.5 °F 28.0 °F 82% 30.18 in 7.0 mi SSW 9.2 mph - N/A   Mostly Cloudy
9:35 PM 32.0 °F 26.4 °F 28.4 °F 87% 30.13 in 6.0 mi SSW 5.8 mph - N/A   Scattered Clouds
9:52 PM 32.0 °F 25.6 °F 28.9 °F 88% 30.15 in 6.0 mi SSW 6.9 mph - N/A   Clear
10:52 PM 32.0 °F 23.6 °F 28.0 °F 85% 30.12 in 7.0 mi South 10.4 mph - N/A   Clear
11:52 PM 32.0 °F 27.5 °F 28.0 °F 85% 30.12 in 8.0 mi SSW 4.6 mph - N/A   Clear